Showing default

OV2-5, 3428

Orbit data source: Space-Track

OV2-5, 3428 is a payload satellite owned by SAMSO (US) in GEO that was launched on Thu, 26 Sep 1968 UTC via a TITAN IIIC launch vehicle from the Air Force Eastern Test Range (AFETR). Payload-class satellites include a variety of spacecraft equipped with specific instruments for various scientific and technological missions. These include communications satellites like Starlink; space stations such as the ISS; scientific satellites like the Hubble; Earth observation satellites from companies like Planet Labs, Umbra, and HawkEye 360; GPS; miniature CubeSats for education and research; and military/defense satellites.

Not visible in the next 10 days
Identifier
3428, 1968-081A
Orbit
GEO
Country
Flag of USUS
Related business
Manufacturer
Northrop
Mission
Non-operational spacecraft
Bus & Motor
OV2, Unknown motor
Mass
~200 kg wet, ~200 kg dry
Launch date (UTC)
1968-09-26 (57 years ago)
Launch vehicle
TITAN IIIC
Launch site
Air Force Eastern Test Range (AFETR)
Object type
Payload
Rocket body
Debris
Shape & HBR
Unknown
Radar Cross Section
Medium (>0.1 m² and <1 m²)

Expand to show TLE details & history
Last TLE update: 9 hours ago

TLE from 9 hours ago
0 OV2-5
1 03428U 68081A   25303.25392032  .00000074  00000-0  00000-0 0  9990
2 03428   1.5515  42.3698 0079929 285.8595 151.3053  1.01555861118725
Epoch: 2025-10-30T06:05Z
TLE epoch observation values (Epoch: 2025-10-30T06:05:38.715Z)
Latitude
1.50291°
Longitude
-10.2927°
Altitude
35,722.046 km
Speed
3.066 km/s
True Right ascension
07h 59m 44s
True Declination
1° 30' 05"
Sunlit
Object was in daylight at epoch
Visualization orbit readout
Latitude
Unknown
Longitude
Unknown
Altitude
Unknown
Speed
Unknown
Apparent Right ascension
Unknown
Apparent Declination
Unknown
Sunlit
N/A
Visualization observer readout
Local Sidereal Time
10:50:48
Azimuth
Unknown
Elevation
Unknown
Doppler factor
Unknown
Orbital elements
Apogee altitude
35,765.678 km
Perigee altitude
35,097.318 km
Semi-major axis
41,809.635 km
Eccentricity
0.00799
Inclination
1.5515°
RAAN
42.3698°
Arg. of periapsis
285.8595°
True anomaly
151.74125°
Mean anomaly
151.3053°
Eccentric anomaly
151.52365°
Mean motion
0.25388 °/min
Orbital period
1,417.99 mins
BSTAR
0
Loading maneuver chart data...
Computing Atmospheric mass density...

Documentation

Showing up to 5 results
|